Date String (YYYY-MM-DD hh:mm:ss) UTC,Instrument flags,Ambient pressure (hPa),Sample flow (lpm),Bypass flow (lpm),Sample temperature (°C),Ambient temperature (°C),ASC tube jacket temperature (°C),LED temperature (°C),Box temperature (°C),Sample RH (%),Span deviation,Mass concentration (μg/m³),Mass concentration (μg/m³),Mass concentration (μg/m³)
DateTimeUTC,F1_M11,P_M11,Q1_M11,Q2_M11,T1_M11,T2_M11,T3_M11,T4_M11,T5_M11,U1_M11,ZSPAN_M11,X2_M11,X0_M11,X1_M11
2021-12-31 11:00:00,,0807.5,5.00,0.00,21.1,20.5,00.0,30.4,22.7,12.5,0000.0,0000.20,0002.27,0000.13
2021-12-31 11:01:00,,0807.4,5.00,0.00,21.1,20.5,00.0,30.4,22.6,12.5,0000.0,0000.20,0002.29,0000.13
2021-12-31 11:02:00,,0807.4,5.01,0.00,21.1,20.7,00.0,30.4,22.7,12.5,0000.0,0000.20,0001.40,0000.13
2021-12-31 11:03:00,,0807.4,4.98,0.00,21.3,21.7,00.0,30.4,23.1,12.2,0000.0,0000.20,0000.46,0000.12
2021-12-31 11:04:00,,0807.4,5.01,0.00,21.5,22.7,00.0,30.5,23.5,12.3,0000.0,0000.21,0000.49,0000.12
2021-12-31 11:05:00,,0807.4,5.00,0.00,21.6,22.7,00.0,30.5,23.6,12.2,0000.0,0000.21,0000.48,0000.12
2021-12-31 11:06:00,,0807.4,4.99,0.00,21.6,22.3,00.0,30.5,23.5,12.1,0000.0,0000.21,0000.48,0000.12
2021-12-31 11:07:00,,0807.5,5.00,0.00,21.6,22.0,00.0,30.5,23.3,12.1,0000.0,0000.21,0000.42,0000.12
2021-12-31 11:08:00,,0807.5,4.99,0.00,21.6,21.7,00.0,30.5,23.2,12.0,0000.0,0000.22,0000.42,0000.12
2021-12-31 11:09:00,,0807.5,5.01,0.00,21.5,21.5,00.0,30.5,23.1,12.0,0000.0,0000.23,0000.44,0000.12
2021-12-31 11:10:00,,0807.5,5.01,0.00,21.5,21.3,00.0,30.5,23.1,12.0,0000.0,0000.22,0000.66,0000.12
2021-12-31 11:11:00,,0807.5,5.00,0.00,21.4,21.1,00.0,30.5,23.0,12.0,0000.0,0000.22,0001.10,0000.12
2021-12-31 11:12:00,,0807.5,5.01,0.00,21.4,21.0,00.0,30.5,22.9,12.0,0000.0,0000.23,0001.12,0000.11
2021-12-31 11:13:00,,0807.5,4.98,0.00,21.4,20.8,00.0,30.5,22.9,12.0,0000.0,0000.22,0001.11,0000.11
2021-12-31 11:14:00,,0807.5,5.02,0.00,21.3,20.7,00.0,30.5,22.8,12.1,0000.0,0000.22,0001.10,0000.11
2021-12-31 11:15:00,,0807.5,4.99,0.00,21.3,20.7,00.0,30.5,22.8,12.2,0000.0,0000.21,0001.08,0000.11
2021-12-31 11:16:00,,0807.5,5.00,0.00,21.2,20.6,00.0,30.4,22.8,12.3,0000.0,0000.20,0001.07,0000.11
2021-12-31 11:17:00,,0807.5,5.00,0.00,21.2,20.5,00.0,30.4,22.7,12.4,0000.0,0000.20,0001.06,0000.11
2021-12-31 11:18:00,,0807.5,5.01,0.00,21.2,20.5,00.0,30.4,22.7,12.4,0000.0,0000.18,0001.01,0000.10
2021-12-31 11:19:00,,0807.4,4.99,0.00,21.1,20.5,00.0,30.4,22.7,12.6,0000.0,0000.18,0001.01,0000.10
2021-12-31 11:20:00,,0807.5,5.01,0.00,21.1,20.4,00.0,30.4,22.6,12.7,0000.0,0000.18,0001.06,0000.09
2021-12-31 11:21:00,,0807.5,4.98,0.00,21.2,21.0,00.0,30.4,22.8,12.7,0000.0,0000.18,0000.78,0000.09
2021-12-31 11:22:00,,0807.5,5.00,0.00,21.3,22.1,00.0,30.4,23.2,12.6,0000.0,0000.20,0000.43,0000.10
2021-12-31 11:23:00,,0807.4,5.00,0.00,21.5,22.8,00.0,30.5,23.6,12.5,0000.0,0000.19,0000.43,0000.10
2021-12-31 11:24:00,,0807.4,5.00,0.00,21.6,22.7,00.0,30.5,23.6,12.5,0000.0,0000.21,0000.49,0000.10
2021-12-31 11:25:00,,0807.4,5.01,0.00,21.7,22.4,00.0,30.5,23.5,12.4,0000.0,0000.22,0000.50,0000.10
2021-12-31 11:26:00,,0807.4,5.00,0.00,21.7,22.1,00.0,30.5,23.5,12.5,0000.0,0000.22,0000.49,0000.10
2021-12-31 11:27:00,,0807.4,5.01,0.00,21.7,21.9,00.0,30.6,23.4,12.5,0000.0,0000.23,0000.54,0000.10
2021-12-31 11:28:00,,0807.5,4.99,0.00,21.7,21.7,00.0,30.6,23.3,12.5,0000.0,0000.25,0000.60,0000.10
2021-12-31 11:29:00,,0807.5,5.01,0.00,21.7,21.6,00.0,30.6,23.3,12.5,0000.0,0000.26,0000.62,0000.10
2021-12-31 11:30:00,,0807.6,5.00,0.00,21.7,21.4,00.0,30.6,23.4,12.5,0000.0,0000.26,0000.74,0000.11
2021-12-31 11:31:00,,0807.6,5.00,0.00,21.7,21.4,00.0,30.6,23.4,12.5,0000.0,0000.25,0000.68,0000.11
2021-12-31 11:32:00,,0807.6,5.00,0.00,21.7,21.3,00.0,30.6,23.4,12.4,0000.0,0000.24,0000.66,0000.11
2021-12-31 11:33:00,,0807.6,4.99,0.00,21.7,21.2,00.0,30.6,23.4,12.4,0000.0,0000.21,0000.55,0000.11
2021-12-31 11:34:00,,0807.5,5.02,0.00,21.7,21.2,00.0,30.6,23.4,12.5,0000.0,0000.20,0000.51,0000.11
2021-12-31 11:35:00,,0807.7,4.99,0.00,21.7,21.2,00.0,30.7,23.4,12.5,0000.0,0000.17,0000.46,0000.10
2021-12-31 11:36:00,,0807.7,5.01,0.00,21.7,21.2,00.0,30.7,23.4,12.5,0000.0,0000.17,0000.46,0000.10
2021-12-31 11:37:00,,0807.7,4.99,0.00,21.7,21.2,00.0,30.7,23.4,12.5,0000.0,0000.16,0000.45,0000.09
2021-12-31 11:38:00,,0807.6,5.00,0.00,21.7,21.2,00.0,30.7,23.4,12.5,0000.0,0000.15,0000.39,0000.09
2021-12-31 11:39:00,,0807.7,5.01,0.00,21.7,21.2,00.0,30.7,23.4,12.5,0000.0,0000.14,0000.46,0000.10
2021-12-31 11:40:00,,0807.9,5.01,0.00,21.7,21.2,00.0,30.7,23.4,12.5,0000.0,0000.14,0001.54,0000.10
2021-12-31 11:41:00,,0808.0,5.00,0.00,21.7,21.2,00.0,30.7,23.4,12.5,0000.0,0000.13,0001.42,0000.10
2021-12-31 11:42:00,,0807.7,5.00,0.00,21.7,21.2,00.0,30.7,23.4,12.5,0000.0,0000.13,0001.43,0000.10
2021-12-31 11:43:00,,0807.7,5.01,0.00,21.7,21.1,00.0,30.7,23.4,12.5,0000.0,0000.14,0001.45,0000.10
2021-12-31 11:44:00,,0807.7,4.99,0.00,21.7,21.1,00.0,30.7,23.4,12.6,0000.0,0000.14,0001.45,0000.10
2021-12-31 11:45:00,,0807.6,5.01,0.00,21.7,21.2,00.0,30.7,23.4,12.5,0000.0,0000.15,0001.48,0000.10
2021-12-31 11:46:00,,0807.7,4.99,0.00,21.7,21.1,00.0,30.7,23.4,12.6,0000.0,0000.16,0001.49,0000.10
2021-12-31 11:47:00,,0807.7,5.01,0.00,21.7,21.1,00.0,30.7,23.4,12.6,0000.0,0000.16,0001.49,0000.11
2021-12-31 11:48:00,,0807.5,4.99,0.00,21.7,21.1,00.0,30.7,23.4,12.6,0000.0,0000.17,0001.51,0000.11
2021-12-31 11:49:00,,0807.5,5.00,0.00,21.7,21.1,00.0,30.7,23.4,12.7,0000.0,0000.17,0001.50,0000.11
2021-12-31 11:50:00,,0807.5,4.99,0.00,21.7,21.1,00.0,30.7,23.3,12.9,0000.0,0000.15,0001.26,0000.10
2021-12-31 11:51:00,,0807.5,5.01,0.00,21.7,21.1,00.0,30.7,23.3,12.9,0000.0,0000.16,0000.31,0000.10
2021-12-31 11:52:00,,0807.5,5.00,0.00,21.6,21.0,00.0,30.7,23.3,13.0,0000.0,0000.16,0000.30,0000.10
2021-12-31 11:53:00,,0807.6,5.01,0.00,21.6,20.9,00.0,30.7,23.3,13.0,0000.0,0000.15,0000.28,0000.10
2021-12-31 11:54:00,,0807.5,5.01,0.00,21.6,20.9,00.0,30.7,23.2,13.1,0000.0,0000.15,0000.28,0000.10
2021-12-31 11:55:00,,0807.5,4.99,0.00,21.5,20.8,00.0,30.7,23.2,13.1,0000.0,0000.15,0000.27,0000.10
2021-12-31 11:56:00,,0807.6,5.00,0.00,21.5,20.8,00.0,30.6,23.2,13.0,0000.0,0000.14,0000.24,0000.10
2021-12-31 11:57:00,,0807.6,5.00,0.00,21.5,20.9,00.0,30.6,23.2,13.0,0000.0,0000.13,0000.20,0000.10
2021-12-31 11:58:00,,0807.7,5.01,0.00,21.5,20.9,00.0,30.6,23.2,13.1,0000.0,0000.13,0000.20,0000.09
2021-12-31 11:59:00,,0807.7,5.00,0.00,21.6,20.9,00.0,30.6,23.2,13.1,0000.0,0000.12,0000.19,0000.09
